Weather History for Wolf Point, MT

Change the Weather History Date:

Friday, January 27, 2012

  Actual Average Record
Temperature  
Mean Temperature 26 °F -  
Max Temperature 34 °F 25 °F 48 °F (2008)
Min Temperature 18 °F 0 °F -24 °F (2009)
Degree Days  
Heating Degree Days 39    
Cooling Degree Days 0    
Moisture  
Dew Point 16 °F    
Average Humidity 67    
Maximum Humidity 85    
Minimum Humidity 40    
Precipitation  
Precipitation 0.00 in 0.01 in 0.05 in (2002)
Month to date precipitation 0.10 0.29  
Year to date precipitation 0.10 0.29  
Sea Level Pressure  
Sea Level Pressure 30.14 in    
Wind  
Wind Speed 12 mph (West)    
Max Wind Speed 24 mph    
Max Gust Speed 34 mph    
Visibility 10 miles    
Events      
T = Trace of Precipitation, MM = Missing Value Source: NWS Daily Summary

Daily Weather History Graph

Daily Weather History Graph

Search for Another Location

Airport:

Trip Planner

Search our weather history database for the weather conditions in past years. The results will help you decide how hot, cold, wet, or windy it might be!

Date:

Astronomy

Jan. 27, 2012 Rise Set
Actual Time 7:36 AM MST 4:53 PM MST
Civil Twilight 7:03 AM MST 5:27 PM MST
Nautical Twilight 6:25 AM MST 6:05 PM MST
Astronomical Twilight 5:48 AM MST 6:41 PM MST
Moon 9:06 AM MST (1/27) 10:15 PM MST (1/27)
Length of Visible Light 10h 24m
Length of Day
9h 16m
Waxing Crescent, 20% of the Moon is Illuminated
Jan 27
Waxing Crescent
Jan 30
First Quarter
Feb 7
Full
Feb 14
Last Quarter
Feb 21
New

Hourly Weather History & Observations

Time (MST) Temp. Windchill Dew Point Humidity Pressure Visibility Wind Dir Wind Speed Gust Speed Precip Events Conditions
12:53 AM 30.0 °F 21.1 °F 25.0 °F 82% 29.92 in 10.0 mi NNW 10.4 mph 18.4 mph N/A   Overcast
1:53 AM 28.0 °F 18.1 °F 23.0 °F 81% 29.99 in 10.0 mi NNW 11.5 mph 19.6 mph N/A   Mostly Cloudy
2:53 AM 28.0 °F 21.7 °F 21.9 °F 78% 30.02 in 10.0 mi West 5.8 mph - N/A   Overcast
3:53 AM 28.9 °F 17.3 °F 19.9 °F 69% 30.06 in 10.0 mi NW 16.1 mph 24.2 mph N/A   Overcast
4:53 AM 27.0 °F 17.3 °F 18.0 °F 69% 30.10 in 10.0 mi WNW 10.4 mph - N/A   Overcast
5:53 AM 26.6 °F 16.2 °F 17.6 °F 69% 30.05 in 10.0 mi West 11.5 mph - N/A   Mostly Cloudy
6:53 AM 23.0 °F 14.7 °F 19.0 °F 85% 30.16 in 10.0 mi West 6.9 mph - N/A   Partly Cloudy
7:53 AM 24.1 °F 12.0 °F 19.9 °F 84% 30.17 in 10.0 mi West 13.8 mph - N/A   Scattered Clouds
8:53 AM 24.1 °F 12.0 °F 19.9 °F 84% 30.19 in 10.0 mi West 13.8 mph - N/A   Partly Cloudy
9:53 AM 27.0 °F 14.3 °F 21.9 °F 81% 30.20 in 10.0 mi West 17.3 mph 20.7 mph N/A   Clear
10:53 AM 30.9 °F 18.7 °F 17.1 °F 57% 30.20 in 10.0 mi WNW 19.6 mph 25.3 mph N/A   Scattered Clouds
11:53 AM 30.0 °F 16.3 °F 15.1 °F 54% 30.21 in 10.0 mi WNW 24.2 mph 29.9 mph N/A   Overcast
12:53 PM 32.0 °F 19.2 °F 15.1 °F 50% 30.20 in 10.0 mi WNW 23.0 mph 29.9 mph N/A   Partly Cloudy
1:53 PM 33.1 °F 21.5 °F 15.1 °F 48% 30.19 in 10.0 mi West 19.6 mph 29.9 mph N/A   Clear
2:53 PM 33.1 °F 20.6 °F 12.0 °F 42% 30.19 in 10.0 mi WNW 23.0 mph 34.5 mph N/A   Clear
3:53 PM 30.9 °F 19.1 °F 9.0 °F 40% 30.19 in 10.0 mi WNW 18.4 mph 25.3 mph N/A   Clear
4:53 PM 28.9 °F 20.4 °F 10.0 °F 45% 30.20 in 10.0 mi West 9.2 mph - N/A   Clear
5:53 PM 26.6 °F 20.0 °F 12.2 °F 55% 30.11 in 10.0 mi WSW 5.8 mph - N/A   Scattered Clouds
6:53 PM 26.1 °F 20.5 °F 14.0 °F 60% 30.19 in 10.0 mi West 4.6 mph - N/A   Overcast
7:53 PM 23.0 °F 18.4 °F 14.0 °F 68% 30.17 in 10.0 mi West 3.5 mph - N/A   Mostly Cloudy
8:53 PM 19.0 °F - 12.9 °F 77% 30.15 in 10.0 mi Calm Calm - N/A   Partly Cloudy
9:53 PM 19.0 °F 9.0 °F 14.0 °F 81% 30.14 in 10.0 mi West 8.1 mph - N/A   Partly Cloudy
10:53 PM 18.0 °F 7.7 °F 12.0 °F 78% 30.12 in 10.0 mi West 8.1 mph - N/A   Clear
11:53 PM 19.0 °F 7.5 °F 12.0 °F 74% 30.12 in 10.0 mi WSW 10.4 mph - N/A   Clear